This is the latest recevied weather packets stored in our database for station/object N4ZIQ. If no packets are shown the sender has not sent any weather packets the latest 10 day(s).
| Time | Temp. | Humidity | Pressure | Rain* | Wind** | Luminosity | Snow |
|---|---|---|---|---|---|---|---|
| 1777933005 | 24.44° C | 62% | 1015.5 hPa | 0 mm | - | 98 W/m² | - |
| 1777932648 | 25° C | 62% | 1015.4 hPa | 0 mm | - | 336 W/m² | - |
| 1777932383 | 24.44° C | 63% | 1015.5 hPa | 0 mm | - | 348 W/m² | - |
| 1777932054 | 24.44° C | 64% | 1015.5 hPa | 0 mm | - | 343 W/m² | - |
| 1777931746 | 23.89° C | 64% | 1015.3 hPa | 0 mm | - | 183 W/m² | - |
| 1777931445 | 25° C | 61% | 1015.3 hPa | 0 mm | - | 86 W/m² | - |
| 1777931155 | 25.56° C | 62% | 1015.2 hPa | 0 mm | - | 464 W/m² | - |
| 1777930846 | 25° C | 62% | 1015.3 hPa | 0 mm | - | 417 W/m² | - |
| 1777930544 | 25° C | 62% | 1015.3 hPa | 0 mm | - | 411 W/m² | - |
| 1777930259 | 25° C | 63% | 1015.3 hPa | 0 mm | - | 429 W/m² | - |
| 1777929945 | 25° C | 63% | 1015.4 hPa | 0 mm | - | 211 W/m² | - |
| 1777929645 | 24.44° C | 64% | 1015.4 hPa | 0 mm | - | 540 W/m² | - |
| 1777929350 | 25° C | 63% | 1015.4 hPa | 0 mm | - | 473 W/m² | - |
| 1777929045 | 24.44° C | 63% | 1015.4 hPa | 0 mm | - | 450 W/m² | - |
| 1777928744 | 24.44° C | 63% | 1015.5 hPa | 0 mm | - | 155 W/m² | - |
| 1777928451 | 25.56° C | 62% | 1015.5 hPa | 0 mm | - | 148 W/m² | - |
| 1777928144 | 25.56° C | 62% | 1015.5 hPa | 0 mm | - | 613 W/m² | - |
| 1777927844 | 25.56° C | 61% | 1015.5 hPa | 0 mm | - | 631 W/m² | - |
| 1777927552 | 25.56° C | 61% | 1015.4 hPa | 0 mm | - | 606 W/m² | - |
| 1777927245 | 25.56° C | 62% | 1015.5 hPa | 0 mm | - | 461 W/m² | - |
| 1777926944 | 25.56° C | 62% | 1015.5 hPa | 0 mm | - | 631 W/m² | - |
| 1777926653 | 25.56° C | 61% | 1015.5 hPa | 0 mm | - | 645 W/m² | - |
| 1777926344 | 25° C | 62% | 1015.6 hPa | 0 mm | - | 747 W/m² | - |
| 1777926044 | 25.56° C | 62% | 1015.7 hPa | 0 mm | - | 301 W/m² | - |
| 1777925755 | 25.56° C | 61% | 1015.7 hPa | 0 mm | - | 657 W/m² | - |
* Rain latest hour (hover to see other rain measurements)
** Current wind speed in m/s (hover to see current wind gust speed)